Location: Charant-Kari
(42.0642°N, 44.5397°E)
Time: 04:17:41
(UTC+00:00)

Daily predictions for brighter satellites

Satellite Brightness Start Highest point End
(mag) Time Altitude Azimuth Time Altitude Azimuth Time Altitude Azimuth
ADEOS II 2.5 00:00:25 10° N 00:05:23 44° WNW 00:06:31 39° WSW
Cosmos 2266 Rocket 4.2 00:03:04 17° S 00:07:41 66° E 00:13:40 10° NNE
USA 290 4.3 00:06:31 10° NNW 00:07:32 18° NW 00:07:32 18° NW
Cosmos 1943 Rocket 3.8 00:08:04 10° NW 00:10:24 18° WNW 00:10:24 18° WNW
S3M 4.2 00:07:58 10° N 00:14:11 70° E 00:20:26 10° SSE
SL-16 R/B 2.8 00:13:06 33° WSW 00:14:55 43° WNW 00:20:19 10° NNE
Cosmos 1110 Rocket 4.2 00:11:34 10° NNW 00:16:51 75° ENE 00:22:09 10° SSE
ATLAS 5 CENTAUR R/B 2.4 00:12:39 10° NW 00:17:43 47° WSW 00:23:52 10° SSE
CZ-4 R/B 3.9 00:13:11 10° NNE 00:17:52 75° ESE 00:20:34 25° S
Cosmos 2056 Rocket 4.4 00:13:51 10° NW 00:18:23 30° W 00:18:23 30° W
SL-16 R/B 2.7 00:15:21 26° SSW 00:18:34 49° W 00:24:36 10° NNW
CZ-2C R/B 3.6 00:18:46 27° W 00:18:46 27° W 00:23:04 10° NW
GEOS 3 Rocket 3.8 00:15:24 10° SSE 00:20:33 49° WSW 00:25:43 10° NW
Cosmos 1707 3.6 00:18:23 18° SSE 00:20:49 44° E 00:24:20 10° NNE
Intercosmos 25 Rocket 4.2 00:17:11 10° NNW 00:21:24 54° W 00:27:09 14° S
USA 306 3.8 00:21:13 26° SSE 00:22:22 31° SE 00:25:38 10° ENE
Cosmos 1842 3.3 00:22:54 29° S 00:24:42 72° E 00:28:27 10° NNE
Cosmos 1452 Rocket 3.4 00:19:51 10° NNW 00:25:08 89° WSW 00:30:22 10° SSE
NOSS 3-1 (A) 4.1 00:19:28 10° NW 00:27:05 88° SW 00:36:10 10° SSE
Cosmos 1515 Rocket 3.5 00:26:14 32° SSW 00:28:12 68° W 00:32:37 10° N
USA 215 4.4 00:23:01 10° NE 00:28:44 33° NNW 00:34:07 11° W
ALOS 2.8 00:26:00 10° N 00:30:21 42° WNW 00:31:58 30° WSW
Envisat 3.0 00:26:28 10° NNE 00:31:34 86° E 00:35:32 17° SSW
YAOGAN 6 3.1 00:30:38 10° NNE 00:33:52 51° E 00:36:16 17° S
Cosmos 1470 Rocket 3.8 00:31:25 10° NNW 00:35:41 47° W 00:38:00 24° SSW
CZ-3 R/B 4.2 00:21:27 20° SW 00:39:14 40° S 00:48:31 10° ESE
Cosmos 1553 Rocket 4.5 00:35:57 10° NNW 00:41:36 38° W 00:45:27 19° SW
Cosmos 1331 Rocket 3.9 00:36:57 10° NNW 00:42:14 72° WSW 00:47:28 10° S
NOSS 3-1 (C) 4.5 00:37:39 10° NW 00:44:53 43° WSW 00:53:16 10° S
METEOR-M 4.1 00:39:54 10° N 00:45:14 71° WNW 00:49:39 15° SSW
Lacrosse 5 4.2 00:43:02 10° NNW 00:47:07 23° NNE 00:51:11 10° ENE
ATLAS 3B R/B 3.0 00:44:15 10° NW 00:52:02 67° WSW 00:59:38 10° SSE
Cosmos 1655 Rocket 3.9 00:46:03 10° S 00:52:16 80° W 00:58:33 10° N
DMSP B5D2-2 4.2 00:48:26 10° SSE 00:53:36 78° ENE 00:58:49 10° N
NOAA 11 4.2 00:50:20 10° N 00:55:47 70° WNW 01:01:13 10° SSW
Cosmos 1674 3.0 00:54:31 24° SW 00:56:01 37° WNW 00:59:14 10° N
CRYOSAT 2 4.3 00:52:46 10° N 00:57:40 82° W 01:02:32 10° S
Cosmos 2315 Rocket 3.9 00:53:28 10° N 00:59:41 78° W 01:05:52 10° S
Cosmos 1656 Rocket 4.3 00:56:48 10° NW 01:01:31 31° WSW 01:06:15 10° SSW
Cosmos 1933 Rocket 3.8 00:58:21 10° NNW 01:02:31 46° W 01:06:38 10° SSW
USA 267 3.7 00:56:43 10° SSE 01:02:38 37° SW 01:08:36 10° WNW
Cosmos 1908 2.9 01:01:10 10° N 01:04:49 82° W 01:08:24 10° S
Gbstr 26 Del rocket 4.2 01:01:18 10° NW 01:05:03 37° NNE 01:08:32 10° E
Cosmos 2369 Rocket 2.6 01:00:29 10° NW 01:05:37 38° WSW 01:10:44 10° S
Cosmos 1470 3.0 01:05:27 10° NNW 01:09:04 43° W 01:12:38 10° SSW
ISS -3.8 01:11:17 17° SW 01:13:47 87° NW 01:17:07 10° NE
USA 305 0.9 01:14:41 25° SSW 01:15:23 54° SE 01:17:14 10° ENE
Cosmos 614 Rocket 4.0 01:10:17 10° SSW 01:15:23 85° ESE 01:20:33 10° NNE
BREEZE-M DEB (TANK) 4.4 00:55:38 10° WNW 01:15:55 66° SW 01:20:58 10° SE
Cosmos 1300 4.2 01:16:55 10° N 01:20:17 38° ENE 01:23:38 10° SSE
Cosmos 1441 Rocket 4.1 01:19:15 10° N 01:22:55 52° ENE 01:26:32 10° SSE
USA 276 2.5 01:20:52 12° SW 01:23:19 46° SE 01:26:08 10° ENE
Cosmos 44 3.5 01:19:10 10° NNW 01:24:07 77° ENE 01:28:42 10° SE
Cosmos 1943 4.0 01:21:56 11° SW 01:27:02 37° WNW 01:32:18 10° N
Thor Agena Rocket 4.2 01:30:40 10° N 01:35:15 36° WNW 01:39:52 10° SW
Cosmos 1707 Rocket 3.5 01:32:23 10° S 01:36:42 82° W 01:41:03 10° N
